Location: Cahas Mountain Overlook
(37.0833°N, 80.1000°W)
Time: 01:21:00
(UTC-05:00)

Transit 4A - Visible Passes

Search period start: 29 November 2023 00:00
Search period end: 09 December 2023 00:00
Orbit: 864 x 979 km, 66.8° (Epoch: 28 November)

Date Brightness Start Highest point End Pass type
(mag) Time Alt. Az. Time Alt. Az. Time Alt. Az.
29 Nov 9.7 05:44:24 10° N 05:49:29 26° NE 05:54:24 10° ESE visible
30 Nov 9.1 05:53:10 10° NNW 05:58:49 38° NE 06:04:16 10° ESE visible
01 Dec 10.5 04:19:22 10° NNE 04:20:17 10° NE 04:21:11 10° NE visible
01 Dec 8.5 06:02:05 10° NNW 06:08:04 56° ENE 06:13:50 10° SE visible
02 Dec 10.3 04:26:34 10° N 04:29:54 15° NE 04:33:10 10° ENE visible
02 Dec 7.9 06:11:06 10° NNW 06:17:13 83° ENE 06:23:06 10° SSE visible
03 Dec 9.9 04:35:56 13° N 04:39:24 21° NE 04:43:47 10° E visible
03 Dec 7.9 06:20:17 10° NNW 06:26:17 66° WSW 06:32:05 10° SSE visible
03 Dec 9.9 19:38:13 10° S 19:39:30 16° S 19:39:30 16° S visible
04 Dec 9.4 04:45:27 18° N 04:48:49 29° NE 04:53:55 10° ESE visible
04 Dec 8.3 06:29:37 10° NW 06:35:16 42° WSW 06:40:45 10° S visible
04 Dec 9.4 19:46:49 10° S 19:49:29 26° S 19:49:29 26° S visible
05 Dec 8.8 04:55:02 25° N 04:58:07 42° NE 05:03:42 10° SE visible
05 Dec 8.8 06:39:12 10° NW 06:44:10 27° WSW 06:49:01 10° SSW visible
05 Dec 9.8 18:14:22 10° ESE 18:15:53 12° ESE 18:15:53 12° ESE visible
05 Dec 9.0 19:55:45 10° SSW 19:59:27 38° SSW 19:59:27 38° SSW visible
06 Dec 10.6 03:21:08 11° NE 03:21:08 11° NE 03:21:40 10° ENE visible
06 Dec 8.1 05:04:41 33° N 05:07:20 63° ENE 05:13:09 10° SE visible
06 Dec 9.3 06:49:14 10° WNW 06:53:00 17° WSW 06:56:43 10° SW visible
06 Dec 9.2 18:21:06 10° SSE 18:25:30 20° ESE 18:25:48 20° E visible
06 Dec 8.9 20:04:56 10° SW 20:09:22 44° WSW 20:09:22 44° WSW visible
07 Dec 10.3 03:30:53 15° ENE 03:30:53 15° ENE 03:32:56 10° E visible
07 Dec 7.7 05:14:26 44° NNW 05:16:28 87° WSW 05:22:20 10° SSE visible
07 Dec 8.8 18:28:56 10° SSE 18:34:22 30° ESE 18:35:41 28° E visible
07 Dec 9.1 20:14:26 10° SW 20:19:15 39° W 20:19:15 39° W visible
08 Dec 10.0 03:40:42 20° ENE 03:40:42 20° ENE 03:43:23 10° E visible
08 Dec 7.8 05:24:15 48° WNW 05:25:30 57° WSW 05:31:12 10° S visible
08 Dec 8.3 18:37:17 10° S 18:43:18 45° ESE 18:45:29 34° ENE visible
08 Dec 9.5 20:24:14 10° WSW 20:29:02 30° WNW 20:29:02 30° WNW visible
